Wind_Speed
19 19 19 19 19 19 20 20 19 19 19 19 19 18 18 18 18 17 16 16 17 16 16 15 14 14 13 12 11 10 9 9 9 9 9 8 8 8 7 7 7 7 6 7 7 7 8 8 8 8 8 8 8 9 9 10 10 11 13 14 14 11 9 7 7 6 4 3 1 1 4 5 5 5 6 6 6 5 5 5 5 5 5 5 5 5 5 5
18 19 19 19 19 19 20 20 20 19 19 19 19 19 19 18 18 17 17 17 17 17 16 15 14 13 12 11 10 10 10 10 10 9 9 8 8 8 8 7 7 6 7 7 7 7 7 7 8 8 8 8 9 9 10 10 11 12 12 14 14 12 9 7 6 6 4 3 1 1 2 4 5 5 6 6 6 6 5 5 5 6 6 6 6 6 5 5
18 18 19 19 19 19 20 19 19 19 19 19 19 19 19 18 17 17 18 18 17 16 16 15 13 13 12 11 10 10 10 11 10 9 9 9 8 8 8 7 7 7 7 7 7 7 7 7 8 7 7 7 8 9 10 10 11 12 12 12 13 12 10 8 7 6 5 3 2 3 4 4 5 5 5 6 6 5 5 5 5 6 7 6 7 7 6 6
17 18 18 18 18 19 19 19 19 19 19 19 19 19 18 18 18 18 18 18 17 16 15 14 13 12 11 11 10 10 11 10 10 9 9 9 8 8 8 7 7 7 7 7 7 6 7 7 6 6 6 6 8 8 9 10 10 11 11 11 12 11 10 9 8 7 6 5 5 5 5 4 5 6 6 6 7 5 4 6 6 8 8 8 8 8 8 8
17 17 17 18 18 18 18 18 19 18 19 19 19 18 18 18 18 18 18 18 17 16 15 14 12 12 11 11 11 11 10 9 9 10 9 9 9 8 8 7 7 7 7 7 7 7 6 6 5 4 5 6 8 8 9 9 9 9 10 10 11 11 10 10 9 8 7 6 6 5 5 4 6 7 7 7 7 5 6 7 8 9 10 10 10 10 10 9
18 18 18 17 17 18 18 18 18 18 19 19 19 19 19 19 19 19 18 18 17 16 15 14 13 12 11 11 11 11 10 8 9 10 9 9 8 8 8 7 7 7 7 7 7 6 6 5 4 4 4 5 7 8 9 9 9 9 9 10 10 11 10 9 8 7 6 6 5 5 5 6 6 7 9 9 7 7 8 9 9 10 11 11 11 11 11 10
18 18 18 18 18 18 18 18 19 19 19 19 19 19 19 19 19 19 19 18 17 16 15 14 13 12 12 12 12 11 10 9 9 8 9 8 8 8 8 8 8 8 7 7 6 6 6 5 4 4 4 4 6 7 8 9 9 9 9 8 9 10 10 9 8 6 6 6 6 7 7 7 8 10 11 9 8 9 10 11 11 11 12 11 11 11 12 11
18 18 18 18 18 18 18 18 19 19 19 19 20 20 20 20 19 19 19 18 17 16 15 14 13 13 13 12 12 11 10 10 10 8 7 7 8 8 9 9 9 8 8 8 7 6 6 5 4 4 4 4 5 6 8 8 8 9 8 8 9 10 9 9 8 8 8 7 8 9 8 9 11 13 13 10 9 11 11 12 12 12 13 12 12 13 13 13
19 18 18 18 18 18 18 18 18 19 19 20 20 20 20 20 20 19 18 17 16 16 15 14 14 14 13 12 11 11 10 11 11 10 9 7 7 8 9 9 9 9 9 8 8 7 6 5 4 4 5 5 5 6 7 7 7 8 8 8 9 9 9 9 9 9 9 8 10 10 10 12 13 15 13 10 10 11 11 13 13 13 13 13 14 14 15 14
19 19 19 19 19 19 19 19 19 19 19 20 20 20 20 20 20 19 17 16 16 15 15 15 15 14 13 12 11 10 11 11 10 11 10 10 9 8 8 9 9 9 9 9 8 8 6 5 5 4 5 6 6 6 6 6 7 7 7 7 8 8 9 9 9 9 9 10 11 11 12 13 15 16 11 8 11 11 12 13 14 14 15 15 15 15 16 15
19 20 20 19 19 19 20 20 20 20 20 20 20 20 20 20 19 18 17 16 15 15 15 15 16 15 13 12 11 10 11 10 10 10 10 10 10 10 10 10 10 10 10 9 9 8 7 7 6 6 6 6 7 6 7 7 7 7 7 7 7 8 9 9 10 10 11 11 12 13 15 16 17 17 10 9 14 14 14 15 14 15 15 16 16 16 17 16
20 20 20 20 20 20 20 20 20 20 20 20 20 21 20 20 19 18 17 16 16 15 16 16 16 15 14 13 11 11 12 11 10 9 9 9 9 10 11 11 11 11 10 10 9 9 8 8 8 8 7 7 7 6 7 8 8 8 8 9 9 10 11 11 11 11 11 12 14 14 16 18 17 15 10 11 13 13 14 13 13 14 14 15 15 15 15 15
20 20 20 20 20 20 20 20 19 20 20 20 20 20 20 20 19 19 18 17 16 16 17 17 17 17 16 14 13 13 12 11 11 9 9 9 9 10 10 11 11 11 11 11 10 9 9 9 9 9 9 8 8 7 7 8 8 8 9 9 10 11 12 12 12 12 12 13 13 14 18 18 14 11 10 10 11 11 12 11 12 13 14 15 15 15 15 15
21 21 20 20 20 20 20 19 19 20 20 20 20 20 20 20 20 20 19 18 18 18 18 18 18 18 17 16 15 15 14 12 11 10 10 10 10 10 10 10 11 11 11 12 12 11 10 11 10 10 10 10 10 10 9 9 9 9 10 10 12 13 13 12 12 12 12 13 13 14 20 19 14 13 12 10 10 11 11 11 12 12 13 15 15 16 15 15
23 22 21 21 21 20 20 19 19 19 20 20 20 19 19 20 20 20 20 20 19 19 19 20 20 20 19 18 17 16 15 14 13 11 11 11 11 10 11 11 11 11 11 12 13 12 12 12 12 11 12 12 11 11 11 11 11 11 12 12 13 14 13 12 13 13 13 13 14 14 18 18 13 12 11 10 10 10 11 12 13 13 14 15 16 16 16 16
24 24 23 22 21 21 20 19 19 19 19 19 19 19 19 20 20 21 21 21 21 21 21 21 21 21 21 20 20 19 16 15 14 13 13 12 12 12 12 12 11 11 12 12 13 13 13 13 13 13 13 13 13 13 12 12 13 14 14 14 14 15 15 14 14 14 13 14 15 16 18 18 13 12 12 12 12 13 15 16 16 17 17 18 18 19 19 19
25 25 25 24 23 22 21 20 20 19 18 18 18 19 19 19 19 20 21 21 22 22 22 22 22 23 22 21 20 19 17 16 15 15 15 14 14 14 13 13 12 12 12 13 13 14 14 14 14 14 14 14 14 14 13 14 15 14 15 15 15 15 15 16 14 13 13 14 16 18 21 22 17 15 16 16 17 19 19 19 20 20 20 20 21 21 21 21
27 26 26 25 25 24 22 22 21 20 19 19 19 18 18 18 19 19 20 21 22 22 23 24 24 23 22 21 20 18 17 17 17 17 17 16 16 15 15 14 13 13 13 14 14 14 15 15 15 16 16 16 16 16 16 15 14 13 13 14 15 16 16 16 15 14 15 17 18 20 25 25 20 19 19 19 21 23 22 21 22 23 22 22 22 22 21 22
29 28 27 27 26 25 24 24 23 22 21 21 20 19 19 19 19 20 20 21 22 22 22 21 22 23 22 20 18 18 19 18 18 18 18 18 18 17 16 16 15 15 15 15 15 15 15 16 17 18 18 16 15 15 15 13 13 13 15 17 17 17 18 18 16 17 18 20 22 23 27 27 24 22 21 21 25 27 26 25 24 24 24 24 23 23 23 23
31 30 29 28 28 27 26 25 25 24 23 22 22 21 21 21 21 21 21 21 21 21 20 19 20 21 21 20 19 18 19 19 18 18 18 17 16 16 16 16 15 15 15 15 15 15 16 18 19 18 16 13 13 13 13 13 14 16 16 17 18 19 20 18 17 18 19 23 25 25 27 28 28 26 24 24 28 30 28 26 26 25 26 27 26 26 26 25
31 31 30 30 30 29 28 28 27 26 25 24 23 23 24 23 22 21 21 21 20 20 21 21 21 22 21 21 21 21 20 19 19 19 19 19 18 18 18 17 16 16 15 15 15 16 17 20 18 14 12 12 13 15 17 17 17 18 18 18 19 21 22 19 18 20 20 25 27 25 28 31 30 29 27 27 30 30 29 28 28 28 27 28 28 27 26 25
30 31 32 31 31 30 30 30 29 28 27 27 26 26 25 23 23 22 22 22 22 22 22 24 25 25 23 23 23 23 23 22 20 19 19 20 20 19 19 18 16 15 15 15 16 16 18 19 15 11 13 14 15 17 19 19 19 19 19 20 21 21 21 20 18 19 20 24 27 26 30 34 33 32 31 30 32 31 30 30 29 27 27 26 26 24 23 23
35 31 30 32 32 31 32 32 31 30 29 29 28 27 26 25 24 24 24 25 25 25 25 26 26 26 25 25 25 25 26 25 23 22 21 21 20 19 18 17 16 17 18 17 16 17 18 16 12 11 14 15 16 18 19 20 20 20 21 22 22 21 20 19 18 18 19 22 26 27 33 39 37 36 35 31 32 31 27 27 26 26 26 25 24 23 23 23
44 39 33 31 31 32 32 32 32 32 31 31 30 28 28 27 26 26 25 27 29 30 29 28 28 29 27 26 26 27 27 27 26 25 25 24 22 21 21 19 20 22 20 18 18 20 21 17 16 15 13 14 15 16 18 19 19 20 21 22 21 18 17 19 19 19 22 24 27 29 34 40 38 35 33 29 28 29 27 27 27 25 24 23 23 22 22 21
47 48 44 38 33 33 32 33 34 32 31 31 29 29 28 27 27 26 25 26 31 34 32 32 33 33 30 28 30 30 28 29 29 27 27 26 24 24 24 23 25 25 22 20 22 25 25 22 22 20 19 19 19 19 18 17 19 20 21 21 19 17 16 18 18 19 23 24 25 23 18 24 33 34 33 33 33 32 30 29 27 23 22 22 21 19 18 19
40 45 50 49 43 38 34 35 33 30 31 31 29 30 29 29 27 25 24 24 32 38 35 35 35 34 34 35 34 30 30 34 33 29 29 27 26 26 26 26 27 26 23 21 23 28 28 24 23 23 23 23 22 23 20 19 22 23 23 20 17 17 17 17 19 19 19 19 21 20 13 19 37 43 38 36 35 33 30 28 25 20 18 17 15 14 14 16
39 39 44 48 51 49 42 37 32 31 31 28 28 30 29 29 26 24 22 16 24 37 37 37 37 36 36 37 36 32 33 37 33 31 32 30 29 30 29 30 29 27 24 22 25 30 29 24 24 25 25 25 25 23 19 19 22 23 22 19 16 17 16 17 19 19 21 23 25 27 22 23 38 45 39 34 34 34 31 25 19 13 11 11 11 11 12 13
41 40 40 41 45 51 50 43 35 33 30 26 27 29 28 29 25 24 18 5 13 25 28 33 38 38 37 34 34 35 38 39 32 30 33 31 32 32 32 33 31 28 26 27 31 33 27 23 24 23 23 25 25 19 15 16 20 22 20 17 17 16 16 18 18 19 22 23 25 29 24 18 28 38 36 34 37 35 29 19 12 10 10 10 10 10 12 14
40 42 43 40 40 45 49 49 45 36 30 28 27 27 28 26 24 22 12 5 17 24 22 27 32 35 37 36 34 35 38 40 35 32 31 30 33 34 34 34 31 29 29 31 34 33 29 27 25 23 24 25 21 16 15 16 18 20 19 18 18 16 17 18 17 21 19 16 25 32 25 15 22 38 37 35 36 30 22 15 11 12 12 9 10 13 16 17
39 40 42 43 43 43 44 49 51 44 36 30 26 27 27 24 25 20 8 12 29 30 26 28 28 30 32 34 37 37 37 37 36 34 31 30 32 33 34 33 31 31 32 34 36 35 33 31 27 27 28 26 22 19 19 18 18 20 19 17 16 15 18 19 18 20 12 12 27 33 28 19 16 27 29 27 28 23 19 16 12 11 10 10 14 17 18 16
41 40 40 43 45 45 44 45 47 47 42 33 27 28 27 26 28 18 9 26 36 33 34 32 30 32 32 33 35 36 37 37 36 35 34 33 32 33 35 34 32 30 31 36 37 37 36 34 32 33 32 30 27 25 22 21 21 21 20 19 15 11 12 14 15 12 4 9 21 23 21 20 17 19 23 24 29 26 20 15 10 11 13 16 18 17 16 15
43 41 40 41 43 46 47 44 41 43 45 40 32 32 32 28 25 21 23 32 27 29 40 39 37 39 35 33 32 31 34 36 37 36 36 36 36 38 38 37 36 30 30 38 40 37 38 39 37 35 35 34 30 26 23 23 23 22 22 20 13 4 4 6 6 5 7 12 18 15 12 17 29 36 34 32 32 22 12 10 13 18 19 16 14 14 14 14
44 43 41 40 42 44 46 45 40 38 45 48 40 37 38 27 21 33 43 38 24 23 30 33 39 41 36 33 32 30 30 31 34 35 35 37 37 38 38 38 39 35 32 35 36 34 32 34 39 39 38 37 34 32 29 27 26 26 27 24 15 5 1 3 4 2 8 13 15 16 13 16 28 34 28 20 14 8 9 16 22 21 16 13 12 12 12 12
43 44 44 42 42 42 42 44 42 37 40 51 50 42 38 26 25 42 50 50 43 31 23 24 30 33 36 37 35 34 33 31 33 33 35 37 37 39 40 40 40 40 38 31 28 30 25 23 32 36 35 36 36 35 34 31 27 26 28 26 22 17 8 4 4 3 4 6 7 10 9 9 13 15 12 9 11 16 23 26 21 14 13 15 13 11 12 13
41 43 45 45 45 43 41 41 43 39 35 45 55 49 40 33 37 47 51 55 55 43 30 23 22 27 34 36 35 35 34 34 35 35 36 38 40 41 41 41 41 41 41 33 26 27 25 25 29 26 24 26 27 28 30 30 27 24 26 27 29 29 21 12 10 10 7 8 8 12 16 21 25 27 28 28 31 30 25 19 13 11 14 14 11 12 16 15
40 41 44 47 48 46 44 44 44 41 38 42 49 52 50 50 52 53 51 51 52 50 40 25 20 28 33 34 36 36 35 36 35 37 39 39 40 41 39 39 39 39 40 38 32 26 24 26 30 26 23 23 22 21 24 26 25 24 28 33 32 29 26 18 13 13 8 7 11 15 23 33 35 38 39 32 26 19 12 11 13 14 14 11 10 16 19 16
40 41 44 47 48 48 46 45 43 40 43 48 49 51 56 63 63 58 51 45 45 49 46 33 27 31 33 34 37 37 37 37 34 36 40 39 38 41 42 40 39 39 39 39 38 33 24 21 24 24 24 25 25 23 23 26 28 27 27 30 29 25 23 19 8 5 2 4 9 14 23 29 25 24 25 16 9 11 14 17 18 17 12 11 14 18 18 17
40 41 45 46 47 47 45 44 41 40 46 51 52 51 55 59 60 59 55 46 40 40 45 42 35 32 32 34 36 36 37 38 36 37 38 37 35 37 41 42 41 40 39 38 39 37 30 21 19 21 21 22 25 25 26 29 31 32 28 24 22 18 17 18 11 2 1 2 6 8 15 25 29 29 28 23 20 22 20 19 18 14 12 13 17 18 17 18
40 42 46 46 44 44 44 42 40 42 48 50 51 51 53 53 53 54 55 50 41 36 41 45 41 36 34 34 35 36 38 39 40 39 38 37 37 37 38 38 37 37 38 40 40 38 35 24 17 22 23 22 25 29 32 35 33 33 31 27 25 20 15 18 18 9 3 2 6 5 6 20 32 33 29 25 22 18 12 12 13 11 12 17 18 17 17 18
39 41 47 46 41 41 41 40 40 45 53 55 52 53 54 53 51 50 52 54 49 41 39 43 42 40 39 37 36 36 37 39 41 42 40 38 38 40 38 35 35 34 34 39 41 39 38 31 22 21 22 23 28 32 36 36 33 33 35 34 33 27 19 15 18 18 10 3 2 2 7 20 24 19 16 14 11 8 9 11 11 13 19 20 17 18 18 18
37 40 47 45 41 40 38 40 44 48 55 58 57 57 55 54 53 51 50 54 54 47 42 41 40 40 42 41 39 38 37 39 42 43 43 42 40 41 40 37 35 32 31 38 41 39 40 39 32 27 26 30 35 35 33 33 33 34 36 36 37 36 29 15 10 20 21 13 10 4 10 29 29 18 15 11 5 7 13 10 15 21 20 18 18 20 20 20
38 42 47 42 40 40 38 43 47 48 54 59 57 57 57 56 55 52 49 51 55 53 48 44 43 42 43 43 44 42 39 39 42 44 43 44 44 43 40 36 32 30 31 34 36 37 40 41 36 34 36 37 34 32 31 32 35 37 37 39 38 39 40 27 12 17 24 26 26 12 9 33 38 23 18 14 9 12 17 19 24 22 19 20 23 23 22 24
42 45 45 39 37 38 38 43 47 48 52 56 56 57 57 55 55 53 50 48 52 55 53 50 49 45 43 43 42 43 43 41 42 45 44 43 45 45 41 37 33 30 30 31 32 36 39 38 33 31 32 32 30 31 32 32 35 41 43 43 40 38 40 35 28 25 22 26 28 9 7 34 37 21 18 17 15 18 22 23 20 19 23 26 27 26 23 26
43 45 46 41 35 35 37 41 47 49 50 52 54 57 57 55 55 55 53 50 50 52 54 55 53 48 44 42 40 41 43 42 41 43 45 44 45 44 42 42 39 36 35 35 35 35 36 39 33 20 13 15 18 21 29 35 38 42 45 44 43 41 37 36 38 30 21 30 31 14 14 36 32 18 17 15 15 18 17 18 20 24 29 29 29 29 27 29
41 44 48 45 39 38 40 41 44 49 50 51 54 56 57 58 58 56 54 52 50 49 50 53 54 52 48 44 40 37 38 40 41 42 43 45 46 45 42 42 43 43 41 37 36 35 37 43 40 25 12 11 14 18 31 42 43 43 44 43 44 44 41 41 39 30 26 33 32 26 33 44 35 24 22 17 16 19 17 20 27 32 30 29 31 33 33 34
38 42 46 45 42 43 45 43 42 44 47 49 51 53 56 59 58 57 55 53 51 49 49 49 51 53 52 47 42 37 34 37 39 38 40 43 45 46 44 42 42 43 41 37 36 37 39 41 42 38 33 34 38 39 41 41 39 42 45 46 46 45 45 44 38 37 38 29 27 40 50 51 47 41 35 28 25 26 24 27 33 35 32 35 38 37 37 36
35 41 43 42 40 42 46 48 45 44 44 46 48 50 54 57 57 55 55 55 53 50 50 50 50 51 52 51 48 45 42 41 40 41 43 43 43 42 41 42 41 40 40 38 38 38 39 38 39 43 46 50 54 52 48 42 39 41 44 45 46 46 47 48 45 49 47 28 30 50 49 45 54 53 45 42 40 39 38 37 41 42 38 40 41 38 37 35
36 41 43 40 38 38 43 49 49 46 45 46 48 48 49 53 56 55 53 52 53 53 52 51 51 52 53 52 50 50 48 43 41 44 47 48 45 40 38 40 39 38 39 40 41 42 40 40 43 46 48 51 52 50 50 50 47 44 42 42 44 45 48 54 54 56 52 39 43 54 44 44 58 55 48 49 46 46 48 47 49 47 42 40 39 38 36 33
39 42 44 41 40 39 39 41 45 47 47 46 49 51 50 49 51 54 54 52 53 54 53 52 53 54 54 52 50 51 50 44 42 45 45 46 46 44 41 40 39 39 40 42 45 46 43 43 46 47 48 51 50 48 50 50 46 43 42 40 42 42 47 53 54 53 53 50 53 54 48 53 60 54 51 52 50 51 53 51 50 46 41 39 38 36 34 30
42 44 45 43 43 45 43 38 39 45 49 47 45 49 53 53 51 50 51 52 52 52 54 54 53 54 54 52 50 51 52 50 50 50 46 45 46 46 46 45 44 42 41 43 47 47 46 44 44 44 44 46 50 49 48 48 44 41 40 38 39 42 45 50 50 47 49 52 52 52 53 60 63 57 54 53 52 52 51 48 45 41 38 37 35 34 32 30
42 43 45 44 43 45 47 45 41 42 47 49 45 42 46 52 55 53 52 52 51 50 52 51 49 49 50 49 49 50 49 49 49 48 48 50 49 47 48 48 46 42 41 44 47 48 47 45 44 41 35 40 50 49 46 49 45 41 41 42 46 50 50 50 49 46 48 51 50 51 56 63 62 56 52 51 50 48 45 43 39 35 34 33 33 33 32 30
42 42 44 45 44 42 43 47 47 45 46 48 46 46 47 47 48 50 52 52 51 49 49 47 44 46 49 50 48 44 40 41 44 45 48 51 49 46 45 44 43 42 41 41 42 46 46 45 47 42 33 40 52 48 44 42 31 30 45 55 57 58 52 48 50 51 52 52 50 53 58 59 55 52 52 52 48 44 41 37 34 33 32 32 32 32 30 30
Wind_Direction
207 209 210 209 209 209 209 209 209 210 210 209 207 206 204 204 203 202 200 195 190 188 185 184 185 188 193 197 199 203 209 213 212 211 210 209 207 206 208 209 207 205 206 207 207 207 208 207 205 205 204 205 206 207 210 208 206 208 214 221 223 226 223 213 200 196 191 182 193 229 222 237 248 259 262 261 259 250 247 248 249 249 255 258 248 240 243 254
207 209 210 210 210 210 211 209 209 210 210 209 207 205 204 204 203 201 197 192 190 188 186 187 190 193 199 202 204 210 216 219 216 215 215 213 211 212 214 216 216 215 217 219 218 215 214 215 213 210 207 208 213 213 214 214 212 212 217 221 224 230 229 216 201 198 195 178 183 261 250 255 255 266 267 265 269 264 258 255 255 258 261 260 251 246 246 253
207 209 210 211 210 211 211 210 209 209 209 208 207 205 204 203 202 198 194 192 191 189 190 191 194 199 204 207 211 216 221 223 219 215 217 217 217 217 219 222 223 222 221 221 219 213 211 214 212 206 203 208 214 214 214 217 216 215 217 219 222 226 222 212 202 198 196 195 229 269 276 263 256 266 266 261 262 260 262 263 262 263 266 266 259 253 252 257
206 209 210 210 210 211 211 209 209 208 207 206 205 205 203 202 199 196 194 193 192 192 194 195 199 205 209 213 218 221 223 226 223 217 218 220 223 225 226 225 224 221 217 217 212 205 206 206 201 199 202 208 214 214 213 216 216 216 217 215 216 217 213 208 205 206 210 219 241 264 271 264 259 261 264 260 257 262 267 262 261 260 262 266 262 255 256 261
205 207 209 208 208 209 209 207 207 206 205 204 204 203 201 199 196 195 195 194 194 196 198 200 204 209 215 219 222 224 224 229 230 222 219 219 221 224 224 223 220 216 213 211 204 196 196 193 190 199 208 211 217 216 214 216 216 218 219 213 211 209 206 204 206 214 225 234 240 248 254 253 251 254 260 259 258 261 257 254 256 256 258 260 258 257 260 262
206 206 207 207 206 206 206 205 203 203 203 201 200 200 199 197 195 195 196 196 198 200 202 205 209 213 218 221 223 225 222 224 228 224 222 221 219 219 220 218 215 213 213 209 201 191 189 187 184 195 206 216 224 223 220 218 217 220 221 218 216 212 206 204 209 223 236 241 237 235 239 244 248 254 255 253 259 261 257 257 256 257 260 261 261 263 265 264
206 206 206 205 205 204 203 202 201 199 199 199 197 197 197 197 196 197 198 199 200 203 206 208 213 217 220 222 223 225 223 221 226 225 225 222 217 216 217 216 213 212 211 205 196 192 196 192 181 181 190 209 223 226 224 221 221 221 217 217 221 221 217 215 221 232 242 243 241 240 243 249 253 256 256 256 262 264 264 264 260 260 264 265 267 268 268 267
202 202 202 202 201 200 199 200 199 197 197 196 196 196 197 198 198 198 200 202 204 207 209 211 215 218 220 223 224 226 225 224 226 224 219 217 217 217 215 213 211 209 208 201 195 199 205 200 183 175 176 195 211 220 222 217 219 220 215 214 219 225 229 234 238 243 248 250 252 254 255 258 260 262 264 266 267 267 267 267 264 262 263 265 268 269 269 268
197 196 195 196 196 196 196 197 198 197 197 196 196 197 198 198 199 200 203 205 209 211 212 214 216 218 221 223 225 227 229 226 225 223 218 213 211 214 214 212 209 207 206 203 201 206 210 211 203 182 176 189 201 210 215 210 214 219 217 215 220 228 234 242 248 252 256 258 260 263 263 262 266 270 272 275 271 267 263 262 262 260 260 262 266 268 269 268
193 194 194 195 195 194 195 196 198 199 199 199 200 199 199 199 200 202 205 209 212 214 215 216 216 219 221 224 226 229 230 228 224 224 223 221 220 222 218 215 212 208 208 208 210 211 211 219 223 210 194 195 201 207 209 209 213 221 225 225 226 232 238 243 249 255 260 262 263 265 264 265 266 270 278 282 271 264 258 258 260 261 263 264 265 267 267 267
195 195 195 196 196 196 197 197 198 200 201 202 202 202 202 202 204 206 208 212 216 218 218 218 219 219 222 226 227 228 230 228 226 225 224 226 227 228 226 222 217 213 212 211 214 216 212 216 221 222 212 204 207 213 217 219 222 228 233 239 240 240 243 247 250 256 260 262 264 265 265 265 265 270 282 275 266 264 262 261 263 265 267 268 267 267 267 268
199 198 198 199 199 199 200 199 199 200 202 203 205 206 207 207 209 211 214 217 220 221 220 220 220 220 223 225 225 227 228 225 225 225 225 228 228 228 228 225 221 218 216 213 217 221 218 218 221 222 221 216 213 219 228 230 232 236 239 245 250 250 250 251 253 257 260 262 265 269 270 266 266 273 275 263 262 265 267 268 269 270 270 270 269 267 268 269
204 204 203 203 203 204 203 204 204 204 205 207 209 211 212 214 215 217 220 223 225 226 224 222 222 222 224 225 226 227 226 225 224 223 223 225 227 229 229 228 226 223 219 217 221 224 225 226 227 226 228 226 221 224 232 235 238 240 243 246 248 253 257 258 259 260 260 261 264 266 267 267 270 273 264 256 261 263 267 272 272 272 272 272 271 270 269 269
210 210 210 209 209 209 208 209 209 210 211 212 215 217 219 221 223 225 227 229 231 231 228 225 223 225 226 225 226 227 226 225 225 225 226 228 230 232 233 232 231 229 226 224 226 230 231 230 230 230 233 234 232 234 239 243 247 250 253 254 252 255 260 261 261 261 261 260 261 261 265 269 269 267 264 259 259 261 266 270 270 271 272 271 271 270 269 269
215 215 215 215 215 213 212 212 213 215 216 218 219 221 224 227 229 231 233 234 236 236 233 229 226 226 227 226 226 227 225 226 229 230 231 232 233 236 237 236 234 233 232 230 232 234 234 234 233 233 235 238 239 241 244 248 253 256 259 258 257 259 261 264 264 264 264 263 261 258 265 272 268 261 260 257 257 263 269 272 273 273 273 271 268 267 266 265
221 219 219 219 219 218 217 216 217 218 220 222 223 224 226 229 232 234 236 238 238 238 236 232 228 228 229 228 228 227 226 228 232 235 237 236 236 237 237 237 236 235 236 236 236 237 238 238 238 238 239 240 242 244 249 254 255 256 260 261 263 265 266 267 267 267 265 262 261 258 262 268 267 262 262 263 269 273 274 276 277 276 275 272 268 266 264 265
224 223 223 223 222 222 221 221 221 221 222 224 225 226 226 228 232 235 236 237 238 238 236 233 230 230 231 229 229 229 228 231 233 235 237 238 239 240 240 239 238 237 237 237 237 238 240 240 240 242 243 243 244 245 245 250 255 257 262 265 266 268 267 267 268 269 266 263 264 263 263 266 267 266 267 270 275 277 278 279 279 277 274 272 272 271 270 270
225 226 226 225 225 225 224 225 225 225 225 225 226 227 227 229 230 233 235 236 236 236 235 234 232 232 234 232 231 230 229 231 234 236 237 239 240 241 242 241 240 239 237 237 239 239 240 241 241 242 243 243 244 245 246 255 266 266 263 264 264 263 264 267 270 271 271 269 267 266 268 272 272 269 269 272 276 279 280 280 279 279 278 278 277 275 274 273
226 226 228 228 228 227 226 227 228 227 228 229 229 229 230 230 230 232 233 234 235 235 236 238 236 237 239 237 233 231 230 232 233 234 237 239 240 241 242 241 240 240 239 239 240 241 242 242 241 241 245 249 253 258 260 266 268 262 259 260 262 264 264 267 271 273 274 272 269 268 273 278 277 272 271 272 276 278 280 281 281 282 283 282 279 276 274 272
229 228 228 230 230 229 228 228 229 229 230 232 232 232 233 232 233 235 236 237 238 240 241 241 239 238 238 236 233 230 230 233 233 234 236 236 235 233 232 234 237 239 240 240 242 244 245 246 246 249 257 262 264 263 260 256 253 252 255 258 262 264 265 268 271 272 273 272 271 274 275 277 276 275 276 274 275 277 279 282 284 284 284 283 280 276 273 271
232 231 229 229 231 232 231 230 231 231 231 233 234 235 236 237 239 241 243 245 244 242 241 240 239 237 235 234 233 232 232 233 232 232 234 234 232 230 231 237 239 240 241 241 242 244 246 248 252 262 269 262 254 252 251 251 250 252 255 258 260 262 268 272 271 271 272 271 273 277 275 274 276 277 277 274 274 277 282 284 285 285 284 282 279 277 275 273
235 234 232 231 230 232 234 234 233 232 232 234 235 237 239 241 243 245 247 249 245 242 242 241 240 239 238 236 235 235 235 235 234 233 233 234 234 235 237 238 237 239 241 240 241 245 249 254 260 266 260 251 248 250 252 253 252 253 255 257 258 264 274 277 274 273 272 271 275 278 277 276 277 277 276 274 276 279 282 283 284 286 285 282 282 281 279 273
236 236 235 234 232 231 232 234 235 235 234 235 236 238 240 242 245 246 248 251 249 244 242 243 243 243 241 240 240 240 241 240 239 238 238 238 237 237 237 234 237 243 243 242 245 248 253 262 263 254 253 253 253 253 253 254 256 256 256 258 261 269 276 278 279 278 275 275 279 282 282 280 278 278 278 278 279 281 282 283 287 288 287 286 284 281 277 272
233 236 237 237 236 234 232 233 234 235 235 236 237 238 240 242 244 247 249 253 253 247 244 245 245 243 240 240 241 241 243 243 241 241 241 242 241 239 240 241 245 247 246 248 253 255 258 263 260 255 258 260 256 254 253 256 259 261 261 261 266 274 277 277 279 279 279 280 281 287 289 285 283 283 284 285 284 285 288 290 292 292 290 289 284 279 275 273
233 235 238 240 240 238 235 234 233 234 236 237 238 239 241 242 243 246 249 255 257 251 245 245 245 244 241 239 239 239 242 242 239 239 240 242 243 243 244 244 244 245 247 250 255 259 259 258 260 260 261 260 258 257 256 259 264 266 265 265 272 276 274 273 274 278 282 282 284 290 294 288 287 287 287 289 289 290 294 295 297 298 294 288 283 278 275 272
233 233 236 240 242 242 240 238 236 235 235 235 238 239 240 241 242 245 248 257 261 254 248 246 245 245 241 238 237 237 242 243 238 237 238 239 240 242 242 242 243 244 246 250 255 259 257 255 258 258 257 258 257 256 255 260 263 264 267 271 275 274 269 270 273 276 278 280 284 286 283 285 288 287 287 289 292 294 298 301 304 301 291 282 279 277 274 272
231 232 235 238 241 242 242 242 240 239 238 236 236 238 239 239 238 241 245 260 267 257 251 247 244 243 240 239 238 235 238 242 238 234 237 236 236 239 239 239 241 242 243 245 248 253 256 255 255 255 256 255 254 256 262 264 259 260 270 276 275 273 271 269 270 270 271 275 279 278 275 280 283 286 289 291 294 297 301 308 309 298 287 283 282 279 279 281
232 231 232 234 237 240 240 241 241 240 240 237 235 237 238 237 235 235 234 240 265 257 251 245 243 243 241 240 238 234 238 244 240 235 236 235 235 238 240 242 244 246 247 246 247 254 260 258 257 257 255 254 256 260 264 261 257 261 270 275 273 273 270 266 266 266 271 279 277 272 271 271 274 280 288 293 293 298 306 311 309 297 296 291 282 283 290 293
235 232 231 231 234 239 239 238 238 239 239 235 233 234 233 233 230 225 217 213 246 250 248 241 238 238 238 236 235 234 237 241 240 239 239 234 234 236 239 242 244 244 245 246 250 256 258 256 255 255 252 253 257 257 252 251 256 263 266 268 268 268 266 266 267 267 273 277 270 268 265 258 274 280 283 288 291 299 310 311 308 301 294 286 286 296 299 296
235 234 233 231 233 238 238 237 236 236 235 232 231 231 229 227 218 204 179 227 239 244 243 239 236 236 234 231 230 230 232 235 236 236 236 234 233 234 237 240 240 240 241 244 248 250 251 252 250 248 251 253 252 249 246 246 250 255 257 259 260 261 264 266 267 269 276 268 264 269 266 255 273 286 283 286 292 301 310 307 304 296 288 294 300 301 298 293
233 235 235 232 233 237 238 238 235 232 232 229 226 228 224 217 208 190 197 235 240 245 241 237 236 236 236 233 230 229 227 230 232 230 230 230 229 228 229 229 229 231 236 241 244 246 246 247 247 247 249 250 249 246 244 246 246 247 248 249 250 257 267 266 263 258 244 261 267 274 269 245 235 265 278 286 292 300 304 300 297 296 300 306 303 298 293 289
233 233 236 235 234 235 236 239 237 235 234 229 226 225 216 206 200 198 219 231 240 249 240 237 238 237 238 236 235 236 231 230 230 228 229 229 228 229 230 230 228 225 230 236 238 242 245 245 246 248 249 248 246 242 240 240 240 240 240 236 230 248 298 266 251 238 227 252 266 268 261 238 242 261 276 284 290 297 292 288 303 307 306 303 294 291 291 292
234 233 235 235 235 234 235 237 237 239 238 231 227 219 205 198 202 210 219 222 228 243 240 239 242 240 237 232 229 232 231 231 232 230 229 228 230 234 235 236 234 229 233 238 235 235 243 248 245 244 245 245 242 239 238 239 237 238 237 229 213 181 48 263 252 281 255 255 261 257 256 254 257 270 283 283 283 287 281 298 307 304 301 299 293 293 297 300
235 234 233 234 236 235 235 235 233 237 239 230 225 214 197 197 215 218 223 227 227 235 242 239 237 234 232 232 232 229 226 227 231 229 226 224 225 230 231 232 232 231 235 239 237 233 235 245 245 242 243 245 246 245 247 249 249 249 246 238 229 220 207 219 225 218 259 287 272 237 235 248 255 273 281 262 266 283 292 299 299 291 295 300 298 300 308 307
236 233 233 233 234 234 234 232 230 231 236 229 220 209 197 200 213 217 225 230 227 230 238 236 226 220 221 226 229 227 224 225 226 223 223 223 224 229 231 230 229 229 230 230 234 233 231 243 249 246 245 247 248 248 246 243 242 245 240 230 231 235 234 242 255 254 278 313 276 233 237 253 262 269 269 270 279 286 290 291 283 288 295 292 293 307 313 309
236 234 234 232 232 234 232 232 232 231 237 232 212 200 202 212 219 221 225 230 227 226 229 224 208 210 214 216 219 218 217 221 222 219 219 223 227 231 233 234 233 231 231 229 228 227 226 240 248 244 242 242 238 236 235 231 229 229 224 221 228 237 237 240 260 275 283 291 266 245 250 262 270 276 276 276 281 283 277 279 288 296 288 275 294 313 316 310
238 235 235 232 232 234 233 234 235 234 240 236 213 204 213 221 227 228 226 228 228 226 227 223 211 211 212 211 214 213 211 215 217 217 218 220 226 231 232 234 234 234 236 234 231 231 231 240 247 243 239 236 230 225 222 224 225 221 220 226 231 236 234 230 246 309 294 267 268 246 252 265 267 272 279 276 265 269 276 286 293 289 273 272 298 313 319 315
239 237 236 233 232 234 235 235 234 235 241 234 218 217 224 225 229 229 225 227 228 226 228 227 223 220 216 216 219 216 212 212 213 215 218 219 224 232 233 232 232 233 236 234 231 234 236 239 246 241 233 229 226 220 216 219 223 224 228 230 224 222 221 211 210 270 220 237 286 255 252 263 258 259 274 276 270 276 282 285 282 269 265 289 304 311 316 317
239 239 237 234 232 234 234 233 232 235 237 224 213 221 230 232 234 231 226 226 226 227 228 229 229 225 221 222 226 221 214 213 215 215 216 218 225 235 236 234 235 234 234 232 230 232 233 234 241 239 230 220 216 215 216 216 216 219 226 228 224 223 215 206 207 217 197 197 279 286 262 266 267 270 278 280 279 278 269 257 249 249 280 302 310 312 312 315
236 239 239 234 232 234 233 231 231 234 233 226 223 231 236 239 241 237 231 228 226 226 229 230 230 227 225 224 225 225 220 219 220 219 219 221 227 236 238 235 235 234 232 231 231 232 232 231 236 236 223 213 217 222 226 226 222 219 221 221 221 218 210 214 222 223 220 199 227 297 279 269 274 285 288 287 284 256 199 197 229 269 295 304 309 311 312 314
232 237 239 234 231 232 230 227 230 233 231 229 233 238 240 243 245 243 239 231 225 225 228 230 230 230 231 227 223 226 225 223 223 222 224 226 229 236 239 238 235 232 228 226 227 229 229 230 232 229 223 223 230 234 235 235 235 233 234 233 231 223 213 209 226 225 224 229 228 216 279 274 272 276 281 280 255 203 182 203 272 288 294 303 307 307 308 310
229 233 237 236 232 231 228 225 231 234 230 230 236 239 239 242 245 245 243 234 227 225 227 230 231 232 234 233 230 228 225 225 225 224 226 231 235 240 243 243 239 235 231 229 232 233 230 230 230 229 233 238 239 237 234 233 233 232 236 239 236 227 218 211 214 224 220 230 241 234 269 274 272 271 268 254 222 227 235 258 283 288 289 301 304 304 307 308
230 231 234 234 232 231 229 226 230 235 233 234 237 237 236 241 244 245 244 238 231 227 227 230 231 231 232 235 236 231 227 227 227 228 231 235 239 243 245 246 243 237 233 231 234 233 226 224 225 228 237 243 241 239 237 233 230 226 228 230 228 226 227 226 232 237 228 228 233 217 254 266 268 271 265 250 234 246 257 262 272 281 291 300 299 300 307 307
232 231 230 229 227 229 230 226 227 233 236 237 233 229 232 239 241 243 244 242 238 234 232 232 231 230 230 231 233 232 230 228 227 230 233 235 240 243 242 244 245 241 237 234 235 232 221 218 219 217 232 245 240 238 235 229 226 225 227 228 229 232 233 231 232 235 242 241 230 206 245 259 262 266 269 260 238 240 245 245 261 286 298 298 295 299 304 303
233 233 232 227 224 228 233 229 226 230 235 238 233 228 232 237 239 241 243 243 242 239 237 236 233 231 230 228 228 229 230 230 230 233 233 234 239 243 240 241 243 244 243 243 242 239 230 225 220 210 201 224 227 227 230 228 223 223 227 227 229 231 227 227 228 226 239 246 232 219 241 254 256 259 265 262 245 240 230 234 266 290 297 293 294 299 301 299
233 234 234 231 225 227 232 232 230 231 234 238 238 235 233 235 238 241 240 239 240 239 238 240 237 232 229 227 225 224 224 226 229 232 233 234 238 240 240 239 241 244 245 243 240 237 232 228 226 225 227 234 238 239 240 236 226 225 230 230 228 229 228 227 226 226 232 238 235 237 245 252 256 257 259 259 256 256 248 249 274 290 289 289 294 295 296 297
231 232 232 233 230 228 230 232 232 233 234 236 240 240 237 236 238 239 238 239 242 242 241 241 238 234 232 230 226 226 228 229 230 233 235 237 239 241 241 239 240 242 243 239 234 230 227 226 231 237 240 242 246 247 248 246 241 238 239 236 232 231 228 225 225 231 234 230 245 252 249 252 259 259 260 262 264 267 267 271 283 290 288 288 290 290 292 295
227 229 228 230 232 230 230 231 233 235 237 237 239 241 242 240 237 235 236 240 242 242 239 237 236 236 238 237 232 230 231 232 233 235 236 237 238 239 239 239 238 239 240 237 231 227 228 232 238 243 244 245 248 248 248 247 247 247 246 244 243 238 231 228 230 235 233 229 247 258 255 257 264 266 266 268 271 273 277 282 286 288 288 287 287 289 291 291
224 227 226 226 230 231 229 230 231 233 235 239 240 239 239 241 239 236 237 239 238 238 237 236 239 240 241 240 235 231 230 228 228 230 232 233 234 235 236 237 237 236 235 236 233 229 229 234 240 243 244 245 246 244 244 244 245 246 246 247 248 242 236 236 238 240 238 239 252 261 261 262 267 269 269 272 275 277 280 283 285 287 289 287 288 289 288 286
224 226 225 225 229 231 228 226 226 228 231 235 239 239 237 240 241 239 237 235 232 233 235 237 242 245 244 241 237 235 237 237 237 237 236 234 234 236 236 236 237 234 231 232 232 230 229 231 235 237 238 242 243 241 240 243 246 247 246 245 243 241 239 239 240 241 239 242 254 260 260 262 265 266 267 271 275 278 280 282 285 288 289 289 289 288 286 285
226 226 225 228 233 234 232 230 228 229 233 235 239 242 239 239 241 242 242 240 238 238 239 242 245 247 246 242 240 242 247 248 248 249 247 241 241 245 243 238 235 233 230 229 230 228 227 229 231 231 232 238 241 240 242 246 248 248 245 242 240 240 240 238 240 244 243 246 254 256 254 259 264 267 270 274 277 280 281 283 284 286 287 289 289 286 283 281
227 226 224 228 235 237 236 236 234 234 236 236 238 242 243 243 244 243 242 243 242 242 243 247 249 249 245 242 242 249 258 259 259 258 251 245 244 247 246 240 236 233 230 230 231 229 227 227 229 228 230 238 241 243 245 245 242 237 239 241 242 242 243 243 245 250 251 252 253 251 253 262 270 273 275 278 280 281 282 282 284 286 286 286 283 279 276 275
Height
3139 3141 3142 3143 3145 3146 3148 3149 3150 3151 3153 3154 3155 3157 3158 3159 3160 3161 3162 3163 3164 3165 3166 3167 3167 3168 3169 3170 3171 3172 3172 3173 3174 3174 3175 3175 3176 3176 3177 3178 3178 3179 3179 3180 3180 3181 3181 3182 3182 3182 3183 3183 3184 3184 3185 3185 3186 3186 3187 3187 3187 3187 3188 3188 3189 3189 3190 3190 3191 3191 3191 3192 3192 3192 3192 3192 3193 3193 3193 3193 3194 3194 3194 3194 3194 3194 3194 3194
3138 3140 3141 3142 3144 3145 3147 3148 3149 3151 3152 3154 3155 3156 3157 3159 3160 3161 3162 3163 3164 3165 3166 3166 3167 3168 3169 3169 3170 3171 3172 3172 3173 3174 3174 3175 3176 3176 3177 3177 3178 3179 3179 3179 3180 3181 3181 3181 3181 3182 3182 3183 3183 3184 3184 3185 3185 3186 3186 3186 3187 3187 3187 3188 3189 3189 3190 3190 3190 3191 3191 3191 3192 3192 3192 3192 3192 3192 3192 3193 3193 3193 3193 3193 3194 3194 3194 3194
3137 3139 3140 3141 3143 3144 3146 3147 3149 3150 3152 3153 3154 3155 3157 3158 3159 3160 3161 3162 3163 3164 3165 3166 3167 3168 3168 3169 3170 3171 3171 3172 3173 3174 3174 3175 3175 3176 3176 3177 3178 3178 3178 3179 3179 3180 3180 3181 3181 3181 3182 3182 3183 3183 3184 3184 3185 3185 3186 3186 3187 3187 3187 3188 3189 3189 3189 3190 3190 3190 3191 3191 3191 3191 3191 3191 3192 3192 3192 3192 3192 3192 3193 3193 3193 3193 3193 3193
3137 3138 3139 3141 3142 3143 3145 3146 3148 3149 3151 3152 3153 3155 3156 3157 3159 3160 3161 3162 3163 3164 3165 3166 3167 3167 3168 3169 3170 3170 3171 3171 3172 3173 3173 3174 3175 3175 3176 3177 3177 3178 3178 3178 3179 3180 3180 3180 3181 3181 3182 3182 3182 3183 3183 3183 3184 3185 3185 3186 3187 3187 3187 3188 3188 3189 3189 3189 3190 3190 3190 3190 3190 3190 3191 3191 3191 3191 3192 3192 3192 3192 3192 3192 3192 3192 3193 3193
3136 3137 3138 3140 3141 3143 3144 3145 3147 3148 3150 3151 3153 3154 3155 3157 3158 3159 3160 3162 3163 3164 3164 3165 3166 3167 3168 3169 3169 3170 3170 3171 3171 3172 3173 3173 3174 3175 3175 3176 3176 3177 3177 3178 3178 3179 3180 3180 3181 3181 3181 3182 3182 3182 3183 3183 3184 3184 3185 3185 3186 3187 3187 3188 3188 3188 3188 3189 3189 3189 3189 3190 3190 3190 3190 3190 3190 3191 3191 3191 3191 3191 3191 3191 3191 3191 3192 3192
3135 3136 3137 3139 3140 3142 3143 3145 3146 3147 3149 3150 3152 3153 3155 3156 3157 3159 3160 3161 3162 3163 3164 3165 3166 3166 3167 3168 3169 3169 3170 3171 3171 3171 3172 3173 3173 3174 3174 3175 3176 3176 3177 3177 3178 3179 3179 3180 3180 3181 3181 3181 3181 3182 3182 3183 3183 3184 3184 3185 3186 3186 3186 3187 3187 3188 3188 3188 3188 3189 3189 3189 3189 3189 3189 3189 3189 3190 3190 3190 3190 3190 3190 3190 3190 3190 3190 3191
3134 3135 3137 3138 3139 3141 3142 3144 3145 3147 3148 3149 3151 3152 3154 3155 3157 3158 3159 3160 3161 3162 3163 3164 3165 3166 3166 3167 3168 3169 3169 3170 3170 3171 3171 3172 3173 3173 3174 3174 3175 3175 3176 3177 3177 3178 3178 3179 3180 3180 3180 3181 3181 3181 3182 3182 3183 3183 3184 3185 3185 3185 3186 3186 3187 3187 3187 3187 3188 3188 3188 3188 3188 3188 3187 3188 3189 3189 3189 3189 3189 3189 3189 3189 3189 3189 3189 3189
3133 3134 3136 3137 3138 3140 3141 3143 3144 3146 3147 3149 3150 3152 3153 3155 3156 3158 3159 3160 3161 3161 3163 3163 3164 3165 3165 3166 3167 3168 3168 3169 3169 3170 3171 3171 3172 3172 3173 3174 3174 3175 3176 3176 3177 3177 3177 3178 3179 3180 3180 3180 3181 3181 3181 3182 3183 3183 3183 3184 3184 3185 3185 3185 3186 3186 3186 3186 3186 3186 3187 3187 3186 3186 3186 3187 3187 3187 3187 3187 3187 3187 3187 3188 3188 3188 3188 3188
3132 3133 3134 3136 3137 3139 3140 3142 3144 3145 3147 3148 3150 3151 3153 3154 3156 3157 3158 3159 3160 3161 3162 3162 3163 3164 3165 3165 3166 3167 3167 3168 3169 3170 3170 3171 3171 3172 3172 3173 3174 3174 3175 3175 3176 3176 3177 3177 3178 3179 3180 3180 3180 3181 3181 3182 3182 3182 3183 3183 3184 3184 3185 3185 3185 3185 3185 3186 3185 3185 3185 3185 3185 3185 3185 3186 3186 3186 3186 3186 3186 3186 3186 3186 3186 3186 3186 3186
3131 3132 3133 3135 3136 3138 3139 3141 3143 3144 3146 3148 3149 3151 3152 3153 3155 3156 3157 3158 3159 3160 3161 3162 3162 3163 3164 3164 3165 3166 3166 3167 3168 3169 3169 3170 3171 3172 3172 3172 3173 3174 3174 3175 3175 3175 3176 3177 3177 3178 3179 3179 3180 3180 3181 3181 3182 3182 3182 3183 3183 3184 3184 3184 3184 3184 3185 3185 3184 3184 3184 3184 3184 3183 3184 3184 3184 3184 3184 3184 3184 3184 3184 3185 3185 3184 3184 3184
3130 3131 3132 3134 3135 3137 3138 3139 3141 3143 3145 3146 3148 3150 3151 3152 3154 3155 3156 3157 3158 3159 3160 3161 3161 3162 3163 3163 3164 3165 3166 3167 3167 3168 3169 3169 3170 3171 3172 3172 3172 3173 3173 3174 3175 3175 3175 3176 3177 3177 3178 3179 3179 3180 3180 3180 3181 3181 3182 3182 3183 3183 3183 3183 3184 3184 3183 3183 3183 3183 3182 3182 3182 3182 3183 3183 3182 3182 3183 3183 3183 3183 3183 3183 3183 3183 3183 3183
3129 3130 3132 3133 3134 3136 3137 3138 3140 3141 3143 3145 3147 3148 3150 3151 3153 3154 3155 3156 3157 3158 3159 3159 3160 3161 3162 3162 3163 3164 3165 3166 3166 3167 3168 3169 3169 3170 3171 3171 3171 3172 3173 3173 3174 3175 3175 3176 3176 3177 3177 3178 3178 3179 3179 3180 3180 3181 3181 3182 3182 3182 3182 3182 3183 3182 3182 3182 3182 3182 3181 3180 3180 3180 3181 3181 3181 3181 3181 3181 3182 3182 3182 3181 3181 3181 3181 3181
3128 3129 3131 3132 3133 3135 3136 3137 3139 3140 3142 3143 3145 3147 3148 3150 3151 3153 3153 3154 3155 3156 3157 3158 3159 3159 3160 3161 3162 3163 3164 3165 3165 3166 3167 3168 3169 3169 3170 3170 3171 3171 3172 3173 3173 3174 3174 3175 3175 3176 3176 3177 3178 3178 3178 3179 3179 3180 3180 3181 3181 3181 3181 3181 3181 3181 3181 3181 3181 3181 3178 3177 3179 3179 3179 3179 3179 3179 3179 3180 3180 3180 3180 3180 3179 3179 3179 3179
3127 3128 3130 3131 3132 3134 3135 3136 3138 3139 3140 3141 3143 3145 3147 3148 3150 3151 3152 3153 3154 3155 3156 3156 3157 3158 3159 3160 3160 3161 3163 3164 3164 3165 3166 3167 3168 3168 3169 3169 3170 3171 3171 3172 3173 3173 3174 3174 3174 3175 3176 3176 3177 3177 3178 3178 3178 3179 3179 3180 3180 3180 3179 3179 3180 3179 3179 3179 3179 3179 3176 3175 3178 3177 3177 3178 3178 3178 3178 3178 3178 3178 3178 3178 3178 3178 3178 3178
3125 3126 3128 3129 3131 3132 3134 3135 3136 3137 3139 3140 3141 3143 3145 3146 3147 3149 3150 3151 3152 3153 3154 3155 3155 3156 3157 3158 3159 3160 3161 3162 3163 3164 3165 3166 3166 3167 3168 3168 3169 3170 3170 3171 3172 3172 3173 3173 3174 3174 3175 3175 3176 3176 3177 3177 3177 3178 3178 3178 3178 3178 3178 3178 3178 3178 3178 3178 3178 3178 3175 3174 3176 3176 3176 3176 3176 3176 3176 3176 3176 3176 3176 3176 3176 3176 3176 3176
3123 3125 3126 3128 3129 3131 3132 3134 3135 3136 3137 3139 3140 3141 3143 3144 3145 3147 3148 3149 3150 3151 3152 3153 3153 3154 3155 3156 3157 3158 3160 3161 3162 3163 3163 3164 3165 3166 3167 3167 3168 3168 3169 3170 3170 3171 3171 3172 3173 3173 3173 3174 3174 3175 3176 3176 3176 3177 3176 3176 3176 3176 3177 3176 3176 3176 3176 3176 3175 3176 3173 3172 3174 3174 3175 3175 3174 3175 3174 3174 3174 3174 3174 3174 3174 3174 3174 3174
3121 3123 3124 3126 3127 3129 3131 3132 3133 3135 3136 3137 3138 3139 3140 3142 3143 3144 3145 3146 3147 3149 3150 3150 3151 3152 3153 3154 3155 3157 3159 3159 3160 3161 3162 3163 3164 3164 3165 3166 3167 3167 3168 3168 3169 3170 3170 3171 3171 3172 3172 3172 3173 3174 3174 3174 3174 3175 3175 3175 3175 3175 3175 3175 3175 3175 3175 3174 3174 3173 3171 3170 3172 3173 3173 3173 3172 3172 3172 3172 3172 3172 3171 3171 3171 3171 3171 3171
3118 3120 3122 3123 3125 3127 3128 3130 3131 3133 3134 3135 3136 3138 3139 3140 3141 3142 3143 3144 3145 3146 3147 3148 3149 3150 3150 3152 3154 3156 3157 3157 3158 3159 3160 3161 3162 3163 3164 3165 3165 3166 3166 3167 3167 3168 3169 3169 3170 3170 3170 3171 3171 3172 3172 3172 3173 3173 3173 3173 3173 3173 3173 3173 3173 3173 3173 3172 3172 3171 3168 3168 3170 3171 3171 3171 3170 3169 3169 3169 3169 3168 3168 3168 3168 3168 3169 3168
3115 3117 3119 3121 3122 3124 3126 3128 3129 3131 3132 3133 3134 3136 3137 3138 3139 3139 3140 3141 3142 3144 3145 3146 3147 3148 3149 3151 3153 3154 3154 3155 3156 3157 3158 3159 3160 3161 3162 3163 3164 3164 3165 3165 3166 3166 3167 3167 3168 3168 3168 3169 3170 3170 3171 3171 3171 3171 3171 3171 3171 3171 3171 3171 3172 3172 3171 3169 3169 3168 3166 3165 3167 3168 3169 3169 3167 3166 3166 3166 3166 3165 3165 3165 3165 3165 3165 3165
3112 3114 3116 3118 3120 3121 3123 3125 3126 3128 3130 3131 3132 3134 3134 3135 3136 3137 3138 3139 3141 3142 3143 3144 3145 3146 3147 3149 3150 3151 3152 3153 3154 3155 3156 3157 3159 3160 3160 3161 3162 3162 3163 3164 3164 3165 3165 3165 3165 3166 3167 3168 3169 3169 3169 3169 3169 3169 3169 3170 3169 3169 3169 3170 3171 3170 3169 3167 3165 3165 3164 3162 3163 3164 3166 3166 3164 3162 3162 3163 3162 3163 3162 3162 3161 3161 3161 3161
3109 3111 3113 3114 3116 3118 3120 3122 3123 3125 3127 3128 3130 3131 3131 3133 3134 3135 3136 3138 3139 3140 3141 3141 3142 3143 3144 3146 3148 3149 3150 3150 3152 3153 3154 3155 3157 3157 3158 3159 3160 3161 3161 3162 3162 3163 3163 3162 3163 3165 3166 3167 3167 3167 3166 3167 3167 3167 3167 3168 3168 3167 3167 3168 3169 3168 3167 3164 3162 3163 3161 3158 3159 3160 3162 3162 3160 3159 3160 3159 3159 3159 3159 3158 3157 3157 3157 3158
3106 3108 3110 3111 3113 3115 3117 3119 3121 3122 3124 3125 3127 3128 3129 3131 3132 3133 3134 3135 3136 3137 3138 3138 3139 3140 3142 3144 3145 3146 3147 3148 3150 3151 3152 3153 3154 3155 3157 3158 3158 3159 3159 3160 3160 3161 3161 3160 3162 3164 3164 3164 3164 3164 3164 3164 3165 3165 3165 3165 3165 3165 3166 3166 3166 3166 3165 3162 3160 3160 3157 3154 3156 3156 3157 3158 3156 3156 3157 3156 3156 3155 3155 3154 3153 3153 3153 3153
3103 3105 3107 3108 3110 3112 3114 3116 3118 3120 3121 3122 3124 3126 3127 3129 3130 3131 3132 3132 3132 3133 3134 3134 3136 3137 3139 3141 3142 3144 3144 3146 3147 3149 3150 3151 3152 3154 3154 3156 3157 3157 3157 3158 3159 3159 3158 3160 3161 3162 3161 3162 3162 3162 3162 3162 3163 3163 3163 3163 3163 3164 3165 3164 3164 3164 3163 3161 3158 3158 3153 3149 3151 3151 3152 3154 3153 3152 3153 3153 3152 3152 3151 3150 3150 3149 3149 3149
3098 3101 3103 3105 3107 3108 3110 3112 3114 3117 3118 3120 3122 3123 3125 3126 3128 3129 3129 3129 3127 3129 3130 3131 3132 3133 3135 3138 3139 3140 3141 3143 3144 3146 3147 3148 3150 3152 3152 3154 3154 3154 3155 3157 3157 3156 3157 3158 3159 3159 3160 3160 3160 3160 3160 3160 3161 3161 3161 3161 3161 3163 3163 3162 3162 3162 3160 3159 3157 3156 3150 3143 3145 3147 3147 3150 3149 3148 3150 3149 3149 3148 3147 3146 3145 3145 3145 3145
3094 3097 3099 3101 3103 3105 3107 3109 3111 3114 3115 3117 3120 3121 3123 3124 3125 3126 3127 3126 3122 3124 3127 3127 3128 3129 3132 3135 3134 3136 3138 3138 3140 3143 3144 3146 3148 3149 3150 3151 3151 3151 3153 3155 3155 3153 3154 3156 3156 3157 3158 3158 3158 3158 3159 3159 3159 3159 3158 3159 3160 3161 3161 3161 3161 3160 3158 3156 3154 3155 3150 3139 3139 3142 3142 3144 3145 3145 3146 3145 3144 3145 3143 3142 3142 3141 3142 3141
3090 3093 3095 3097 3099 3101 3103 3105 3108 3111 3112 3115 3117 3118 3120 3121 3123 3124 3125 3124 3117 3117 3122 3123 3124 3124 3127 3129 3129 3134 3134 3132 3136 3139 3140 3143 3145 3146 3147 3147 3147 3149 3152 3153 3152 3149 3150 3153 3154 3155 3155 3155 3155 3155 3157 3158 3157 3156 3155 3157 3159 3159 3159 3159 3159 3158 3156 3154 3152 3154 3151 3139 3133 3135 3139 3140 3140 3140 3142 3141 3140 3141 3139 3138 3138 3138 3138 3138
3086 3088 3091 3093 3095 3097 3100 3103 3106 3108 3110 3113 3114 3115 3117 3118 3121 3122 3124 3124 3113 3109 3115 3118 3118 3119 3121 3123 3127 3131 3128 3125 3131 3136 3136 3139 3141 3142 3143 3143 3144 3147 3149 3151 3148 3144 3146 3151 3151 3151 3152 3152 3152 3153 3155 3156 3155 3153 3153 3156 3157 3156 3157 3157 3157 3157 3154 3152 3151 3150 3151 3143 3129 3127 3133 3136 3136 3136 3137 3138 3137 3137 3136 3136 3136 3136 3135 3135
3082 3085 3087 3089 3090 3092 3096 3099 3102 3105 3107 3110 3111 3112 3114 3116 3119 3120 3123 3122 3109 3103 3109 3111 3113 3114 3116 3120 3123 3125 3123 3122 3128 3131 3133 3136 3137 3138 3139 3139 3142 3144 3147 3147 3142 3141 3145 3148 3148 3149 3149 3149 3149 3152 3154 3154 3153 3151 3152 3154 3154 3154 3155 3154 3155 3154 3152 3151 3147 3145 3150 3145 3126 3121 3129 3131 3132 3133 3134 3135 3135 3134 3134 3134 3133 3133 3133 3133
3078 3080 3082 3085 3086 3088 3091 3094 3097 3101 3104 3106 3107 3109 3110 3113 3115 3117 3121 3117 3104 3100 3103 3105 3108 3109 3111 3115 3117 3119 3119 3120 3124 3127 3130 3133 3133 3134 3135 3137 3140 3142 3143 3142 3139 3140 3142 3143 3145 3146 3145 3146 3148 3151 3151 3151 3151 3150 3151 3151 3152 3153 3152 3153 3153 3151 3152 3149 3142 3140 3146 3143 3124 3117 3125 3128 3128 3131 3132 3132 3132 3132 3132 3131 3131 3131 3130 3130
3074 3075 3078 3081 3082 3083 3085 3088 3092 3097 3099 3102 3104 3105 3108 3109 3111 3114 3116 3109 3099 3097 3098 3100 3103 3104 3106 3109 3111 3113 3115 3116 3120 3124 3127 3128 3129 3131 3132 3135 3137 3138 3138 3138 3137 3137 3138 3140 3142 3142 3142 3144 3146 3147 3148 3149 3149 3148 3149 3149 3150 3151 3150 3151 3150 3149 3152 3144 3136 3137 3141 3142 3128 3114 3118 3124 3125 3128 3129 3130 3130 3129 3129 3129 3129 3129 3127 3127
3069 3071 3073 3075 3076 3079 3080 3082 3087 3091 3094 3098 3100 3102 3103 3104 3107 3108 3105 3101 3097 3093 3092 3095 3098 3099 3101 3103 3106 3108 3111 3113 3116 3119 3121 3123 3125 3126 3128 3130 3132 3134 3135 3133 3132 3133 3134 3136 3137 3137 3139 3141 3142 3143 3145 3146 3146 3146 3147 3147 3149 3149 3149 3149 3147 3148 3149 3139 3133 3135 3137 3140 3129 3112 3114 3121 3122 3125 3127 3127 3127 3127 3127 3127 3126 3125 3125 3124
3065 3067 3068 3070 3072 3074 3075 3078 3085 3088 3089 3093 3095 3095 3097 3099 3100 3097 3095 3097 3094 3085 3084 3089 3092 3094 3097 3100 3103 3105 3107 3109 3111 3114 3116 3119 3120 3120 3122 3123 3126 3129 3129 3127 3128 3129 3129 3131 3132 3134 3135 3136 3138 3140 3142 3142 3143 3144 3144 3145 3148 3149 3149 3147 3145 3146 3143 3134 3131 3134 3134 3132 3119 3109 3114 3118 3118 3122 3123 3124 3124 3124 3124 3124 3124 3123 3122 3121
3060 3062 3064 3066 3067 3069 3071 3075 3081 3083 3082 3086 3088 3087 3089 3089 3087 3087 3088 3089 3085 3078 3079 3084 3087 3090 3093 3096 3098 3101 3104 3106 3107 3110 3112 3115 3116 3116 3118 3120 3121 3123 3121 3122 3125 3126 3127 3127 3128 3128 3129 3131 3133 3135 3136 3137 3139 3139 3140 3142 3144 3148 3150 3147 3144 3143 3137 3131 3130 3132 3133 3124 3111 3109 3114 3114 3116 3119 3120 3121 3122 3121 3121 3121 3121 3121 3120 3119
3055 3057 3059 3061 3062 3065 3067 3070 3075 3078 3075 3076 3080 3082 3082 3080 3078 3080 3080 3078 3078 3077 3078 3080 3083 3086 3089 3090 3093 3096 3100 3102 3104 3106 3108 3110 3111 3111 3112 3114 3116 3118 3119 3121 3122 3123 3123 3121 3120 3122 3124 3125 3127 3129 3131 3133 3136 3136 3136 3139 3138 3140 3142 3140 3139 3136 3131 3129 3129 3130 3128 3116 3108 3109 3111 3111 3115 3117 3117 3119 3119 3119 3119 3118 3118 3118 3117 3117
3050 3052 3054 3056 3058 3060 3063 3065 3069 3072 3069 3068 3070 3071 3072 3071 3071 3072 3070 3070 3075 3076 3075 3077 3080 3082 3084 3086 3089 3092 3095 3097 3099 3101 3103 3104 3104 3104 3106 3108 3110 3113 3116 3117 3117 3118 3118 3115 3115 3119 3120 3122 3124 3126 3128 3130 3133 3133 3134 3135 3133 3132 3135 3135 3134 3131 3130 3130 3126 3123 3117 3107 3105 3107 3107 3109 3111 3114 3116 3115 3116 3117 3116 3116 3116 3115 3115 3114
3044 3046 3048 3050 3053 3056 3059 3061 3063 3065 3063 3062 3061 3059 3059 3059 3060 3061 3061 3065 3070 3072 3073 3075 3077 3079 3080 3082 3084 3087 3090 3092 3094 3096 3097 3099 3099 3099 3101 3103 3105 3107 3109 3111 3111 3112 3113 3112 3113 3116 3117 3119 3120 3122 3124 3126 3128 3128 3128 3127 3127 3130 3132 3134 3132 3129 3132 3129 3118 3112 3107 3103 3104 3102 3101 3106 3108 3110 3113 3113 3113 3114 3113 3114 3114 3112 3112 3111
3039 3041 3042 3044 3048 3052 3054 3057 3060 3060 3057 3055 3051 3050 3051 3051 3053 3057 3060 3062 3065 3068 3071 3072 3073 3074 3076 3077 3079 3082 3086 3088 3090 3092 3093 3095 3094 3094 3096 3098 3101 3102 3103 3106 3107 3108 3110 3110 3110 3112 3113 3115 3117 3118 3120 3121 3122 3122 3122 3123 3126 3130 3131 3132 3132 3130 3132 3128 3114 3105 3102 3101 3102 3098 3097 3103 3105 3107 3110 3111 3111 3111 3111 3111 3111 3110 3110 3108
3034 3035 3036 3039 3044 3047 3050 3053 3055 3055 3052 3046 3043 3045 3048 3048 3051 3056 3058 3059 3062 3065 3067 3067 3069 3071 3072 3073 3075 3078 3081 3083 3085 3087 3088 3090 3088 3087 3090 3092 3095 3098 3100 3103 3105 3106 3107 3107 3108 3109 3110 3111 3113 3115 3116 3116 3118 3118 3119 3122 3124 3126 3125 3127 3130 3127 3128 3126 3113 3102 3099 3096 3094 3093 3095 3100 3102 3103 3106 3108 3108 3108 3109 3109 3108 3108 3107 3106
3029 3029 3030 3035 3040 3042 3045 3049 3051 3051 3045 3038 3036 3041 3043 3043 3048 3053 3055 3057 3059 3061 3062 3063 3065 3067 3069 3070 3072 3074 3076 3077 3079 3081 3082 3084 3083 3083 3086 3089 3091 3094 3097 3100 3101 3102 3104 3105 3105 3104 3106 3108 3109 3110 3109 3109 3112 3116 3118 3119 3120 3120 3120 3121 3123 3121 3120 3121 3113 3103 3095 3086 3084 3088 3092 3095 3097 3099 3102 3103 3105 3106 3106 3107 3106 3106 3105 3104
3024 3024 3024 3031 3037 3037 3041 3045 3045 3041 3035 3031 3032 3036 3037 3039 3044 3048 3051 3053 3055 3056 3057 3058 3061 3063 3064 3067 3069 3071 3073 3073 3074 3075 3076 3078 3078 3078 3081 3085 3088 3091 3094 3097 3098 3100 3102 3101 3101 3100 3102 3104 3102 3101 3101 3102 3107 3110 3111 3113 3113 3115 3117 3117 3117 3116 3116 3117 3114 3108 3093 3077 3079 3085 3087 3091 3093 3095 3098 3100 3102 3104 3104 3104 3104 3103 3102 3101
3020 3018 3018 3027 3032 3032 3036 3038 3035 3032 3028 3026 3028 3031 3034 3035 3038 3042 3046 3048 3049 3051 3053 3054 3056 3058 3059 3062 3064 3067 3069 3069 3070 3071 3071 3073 3073 3073 3076 3080 3084 3087 3091 3093 3094 3096 3096 3096 3096 3096 3096 3096 3095 3096 3099 3101 3103 3103 3103 3104 3104 3107 3111 3113 3113 3111 3112 3111 3108 3107 3091 3071 3075 3084 3084 3088 3092 3093 3096 3097 3099 3101 3101 3101 3101 3100 3099 3098
3013 3012 3015 3023 3026 3028 3030 3028 3027 3027 3022 3019 3023 3026 3028 3029 3031 3035 3039 3043 3045 3046 3049 3050 3051 3054 3055 3057 3059 3062 3065 3065 3065 3066 3066 3067 3068 3069 3072 3076 3081 3084 3086 3088 3089 3091 3092 3092 3092 3091 3090 3091 3092 3095 3097 3098 3099 3099 3099 3098 3099 3102 3103 3105 3106 3103 3107 3105 3101 3105 3093 3068 3070 3080 3081 3086 3089 3090 3093 3094 3095 3098 3098 3099 3098 3096 3096 3095
3006 3008 3013 3018 3021 3023 3023 3021 3022 3022 3017 3017 3021 3021 3022 3025 3027 3028 3032 3037 3039 3042 3044 3045 3047 3050 3051 3053 3055 3058 3060 3061 3061 3062 3063 3064 3065 3067 3071 3074 3076 3079 3082 3083 3085 3087 3088 3088 3088 3088 3088 3089 3090 3092 3093 3094 3095 3093 3092 3093 3095 3098 3098 3100 3101 3099 3101 3098 3095 3103 3092 3067 3067 3077 3078 3082 3086 3086 3088 3090 3091 3094 3095 3096 3095 3093 3093 3092
3002 3004 3007 3011 3015 3016 3014 3013 3016 3016 3015 3017 3017 3015 3018 3022 3022 3022 3026 3030 3033 3036 3038 3039 3042 3046 3048 3050 3051 3052 3055 3057 3057 3058 3060 3060 3061 3064 3068 3070 3071 3073 3075 3077 3080 3082 3082 3082 3084 3086 3087 3088 3088 3088 3087 3086 3086 3085 3086 3089 3091 3094 3098 3099 3098 3098 3096 3088 3089 3097 3084 3065 3068 3075 3075 3079 3081 3082 3084 3085 3086 3090 3091 3092 3091 3090 3091 3090
2998 2999 2999 3004 3008 3008 3006 3008 3012 3012 3013 3014 3012 3012 3015 3015 3015 3018 3021 3023 3027 3031 3033 3034 3038 3041 3043 3045 3046 3048 3050 3052 3053 3054 3055 3056 3057 3059 3063 3065 3066 3068 3070 3073 3076 3078 3075 3074 3076 3079 3081 3080 3078 3075 3072 3072 3077 3079 3081 3085 3086 3089 3093 3092 3094 3096 3088 3080 3083 3085 3072 3063 3069 3073 3073 3077 3079 3079 3081 3081 3082 3087 3088 3087 3086 3086 3087 3086
2993 2993 2994 2998 3002 3001 3000 3004 3007 3007 3008 3010 3009 3009 3010 3009 3011 3016 3018 3018 3022 3027 3029 3031 3034 3036 3037 3039 3041 3043 3045 3047 3050 3050 3050 3050 3051 3053 3057 3061 3062 3064 3067 3070 3072 3072 3069 3068 3069 3070 3070 3068 3064 3064 3066 3068 3073 3075 3075 3078 3081 3083 3086 3088 3090 3086 3078 3077 3077 3070 3066 3065 3067 3070 3073 3075 3076 3077 3077 3076 3078 3083 3084 3082 3082 3082 3082 3082
2987 2986 2988 2992 2995 2996 2996 2998 3000 3001 3003 3005 3004 3004 3006 3007 3009 3012 3012 3014 3018 3022 3025 3027 3028 3030 3031 3034 3036 3037 3039 3042 3044 3045 3044 3045 3047 3050 3053 3056 3058 3060 3064 3066 3066 3066 3064 3062 3064 3065 3064 3062 3061 3064 3066 3067 3069 3070 3070 3073 3075 3078 3081 3082 3079 3072 3073 3077 3068 3058 3065 3067 3060 3065 3071 3071 3073 3073 3073 3073 3074 3077 3079 3078 3078 3078 3077 3077
2981 2980 2984 2988 2989 2989 2990 2992 2994 2996 2998 2999 2999 3000 3002 3003 3004 3005 3007 3011 3014 3016 3018 3020 3021 3023 3025 3028 3031 3032 3034 3037 3039 3039 3039 3041 3043 3045 3047 3050 3053 3056 3058 3060 3061 3061 3059 3058 3060 3061 3060 3058 3059 3062 3063 3062 3063 3065 3066 3068 3069 3072 3073 3071 3067 3065 3069 3071 3060 3056 3065 3063 3054 3060 3067 3067 3069 3069 3068 3070 3071 3071 3073 3073 3073 3073 3072 3072
2976 2975 2979 2982 2982 2983 2985 2988 2990 2991 2992 2993 2993 2994 2996 2997 2998 3000 3003 3006 3007 3008 3011 3013 3015 3018 3020 3023 3025 3026 3028 3030 3031 3031 3034 3036 3038 3041 3043 3045 3047 3050 3052 3053 3054 3056 3054 3054 3056 3057 3055 3054 3055 3057 3057 3057 3058 3059 3060 3062 3064 3066 3065 3061 3059 3061 3064 3064 3059 3059 3064 3057 3050 3056 3061 3063 3065 3065 3064 3066 3065 3065 3067 3067 3067 3067 3066 3067
2971 2971 2974 2977 2977 2977 2980 2983 2984 2985 2986 2986 2985 2986 2990 2991 2993 2996 2999 2999 3000 3002 3006 3007 3009 3012 3015 3017 3019 3019 3021 3024 3024 3026 3030 3032 3033 3035 3037 3038 3040 3043 3045 3045 3047 3049 3049 3048 3051 3052 3051 3049 3050 3052 3052 3052 3053 3053 3055 3058 3059 3058 3055 3053 3054 3059 3062 3060 3057 3060 3061 3050 3042 3049 3057 3059 3061 3061 3060 3060 3060 3061 3061 3061 3061 3061 3061 3062
2967 2968 2971 2973 2972 2973 2975 2977 2979 2980 2979 2980 2980 2982 2984 2984 2987 2992 2993 2993 2995 2998 3000 3003 3006 3009 3011 3012 3013 3014 3018 3020 3020 3023 3027 3027 3028 3030 3031 3032 3035 3037 3038 3039 3040 3042 3043 3044 3046 3048 3047 3043 3043 3046 3047 3048 3050 3050 3050 3051 3049 3046 3045 3047 3051 3055 3056 3055 3055 3058 3052 3039 3036 3047 3053 3054 3056 3056 3055 3056 3056 3056 3056 3056 3055 3055 3055 3055
2963 2965 2967 2968 2967 2967 2970 2971 2974 2975 2973 2975 2977 2979 2979 2980 2984 2987 2987 2988 2991 2994 2997 3000 3004 3006 3005 3004 3006 3010 3014 3016 3016 3020 3023 3023 3025 3027 3028 3029 3031 3032 3033 3035 3036 3036 3038 3039 3040 3043 3042 3038 3038 3041 3043 3046 3046 3043 3039 3037 3036 3037 3041 3044 3047 3048 3048 3050 3051 3049 3041 3035 3039 3047 3048 3047 3051 3051 3050 3051 3051 3051 3051 3051 3049 3049 3049 3050